Year,Month,Day,Hour,Minute,Value (Times are PST for windspeed in km/hr)
2020,08,05,00,00,2.80
2020,08,05,00,01,1.60
2020,08,05,00,02,1.50
2020,08,05,00,03,4.10
2020,08,05,00,04,0.50
2020,08,05,00,05,0.20
2020,08,05,00,06,0.00
2020,08,05,00,07,0.00
2020,08,05,00,08,1.80
2020,08,05,00,09,3.10
2020,08,05,00,10,3.80
2020,08,05,00,11,2.50
2020,08,05,00,12,3.40
2020,08,05,00,13,3.90
2020,08,05,00,14,2.80
2020,08,05,00,15,2.50
2020,08,05,00,16,0.00
2020,08,05,00,17,0.20
2020,08,05,00,18,0.00
2020,08,05,00,19,0.00
2020,08,05,00,20,0.00
2020,08,05,00,21,0.00
2020,08,05,00,22,0.80
2020,08,05,00,23,0.00
2020,08,05,00,24,0.00
2020,08,05,00,25,0.00
2020,08,05,00,26,2.50
2020,08,05,00,27,1.70
2020,08,05,00,28,2.50
2020,08,05,00,29,3.40
2020,08,05,00,30,2.00
2020,08,05,00,31,3.20
2020,08,05,00,32,3.90
2020,08,05,00,33,3.10
2020,08,05,00,34,2.60
2020,08,05,00,35,2.50
2020,08,05,00,36,3.00
2020,08,05,00,37,0.10
2020,08,05,00,38,0.00
2020,08,05,00,39,0.00
2020,08,05,00,40,0.00
2020,08,05,00,41,0.00
2020,08,05,00,42,0.00
2020,08,05,00,43,4.70
2020,08,05,00,44,4.10
2020,08,05,00,45,3.70
2020,08,05,00,46,3.00
2020,08,05,00,47,0.00
2020,08,05,00,48,0.00
2020,08,05,00,49,2.40
2020,08,05,00,50,3.00
2020,08,05,00,51,4.50
2020,08,05,00,52,1.10
2020,08,05,00,53,4.10
2020,08,05,00,54,3.60
2020,08,05,00,55,2.70
2020,08,05,00,56,2.80
2020,08,05,00,57,1.90
2020,08,05,00,58,0.00
2020,08,05,00,59,0.00
2020,08,05,01,00,1.80
2020,08,05,01,01,2.70
2020,08,05,01,02,0.00
2020,08,05,01,03,3.50
2020,08,05,01,04,1.30
2020,08,05,01,05,3.50
2020,08,05,01,06,2.40
2020,08,05,01,07,4.00
2020,08,05,01,08,3.50
2020,08,05,01,09,0.60
2020,08,05,01,10,0.00
2020,08,05,01,11,0.00
2020,08,05,01,12,0.00
2020,08,05,01,13,0.00
2020,08,05,01,14,0.00
2020,08,05,01,15,0.00
2020,08,05,01,16,0.00
2020,08,05,01,17,0.00
2020,08,05,01,18,0.40
2020,08,05,01,19,2.30
2020,08,05,01,20,4.20
2020,08,05,01,21,4.00
2020,08,05,01,22,2.10
2020,08,05,01,23,4.00
2020,08,05,01,24,4.10
2020,08,05,01,25,3.70
2020,08,05,01,26,3.60
2020,08,05,01,27,4.50
2020,08,05,01,28,4.50
2020,08,05,01,29,0.90
2020,08,05,01,30,4.20
2020,08,05,01,31,4.50
2020,08,05,01,32,3.70
2020,08,05,01,33,4.40
2020,08,05,01,34,2.70
2020,08,05,01,35,1.90
2020,08,05,01,36,1.70
2020,08,05,01,37,2.00
2020,08,05,01,38,3.40
2020,08,05,01,39,3.00
2020,08,05,01,40,2.60
2020,08,05,01,41,1.70
2020,08,05,01,42,2.50
2020,08,05,01,43,1.40
2020,08,05,01,44,3.00
2020,08,05,01,45,0.80
2020,08,05,01,46,0.20
2020,08,05,01,47,0.00
2020,08,05,01,48,0.00
2020,08,05,01,49,0.60
2020,08,05,01,50,0.10
2020,08,05,01,51,1.50
2020,08,05,01,52,0.00
2020,08,05,01,53,0.00
2020,08,05,01,54,0.40
2020,08,05,01,55,2.30
2020,08,05,01,56,2.20
2020,08,05,01,57,2.50
2020,08,05,01,58,3.60
2020,08,05,01,59,3.50
2020,08,05,02,00,1.00
2020,08,05,02,01,0.00
2020,08,05,02,02,2.90
2020,08,05,02,03,4.60
2020,08,05,02,04,3.70
2020,08,05,02,05,5.00
2020,08,05,02,06,3.60
2020,08,05,02,07,0.40
2020,08,05,02,08,5.70
2020,08,05,02,09,4.70
2020,08,05,02,10,3.90
2020,08,05,02,11,3.40
2020,08,05,02,12,1.30
2020,08,05,02,13,2.80
2020,08,05,02,14,4.00
2020,08,05,02,15,0.50
2020,08,05,02,16,0.00
2020,08,05,02,17,2.30
2020,08,05,02,18,2.70
2020,08,05,02,19,2.50
2020,08,05,02,20,3.70
2020,08,05,02,21,2.00
2020,08,05,02,22,0.70
2020,08,05,02,23,0.80
2020,08,05,02,24,0.70
2020,08,05,02,25,0.00
2020,08,05,02,26,0.00
2020,08,05,02,27,0.90
2020,08,05,02,28,2.20
2020,08,05,02,29,0.20
2020,08,05,02,30,0.00
2020,08,05,02,31,0.00
2020,08,05,02,32,0.20
2020,08,05,02,33,0.00
2020,08,05,02,34,0.00
2020,08,05,02,35,0.00
2020,08,05,02,36,0.00
2020,08,05,02,37,0.00
2020,08,05,02,38,0.00
2020,08,05,02,39,0.00
2020,08,05,02,40,1.40
2020,08,05,02,41,0.00
2020,08,05,02,42,0.10
2020,08,05,02,43,2.50
2020,08,05,02,44,3.40
2020,08,05,02,45,4.50
2020,08,05,02,46,4.30
2020,08,05,02,47,1.90
2020,08,05,02,48,4.20
2020,08,05,02,49,4.30
2020,08,05,02,50,6.50
2020,08,05,02,51,5.10
2020,08,05,02,52,6.10
2020,08,05,02,53,4.20
2020,08,05,02,54,4.20
2020,08,05,02,55,4.20
2020,08,05,02,56,3.60
2020,08,05,02,57,0.70
2020,08,05,02,58,0.00
2020,08,05,02,59,4.70
2020,08,05,03,00,3.50
2020,08,05,03,01,0.10
2020,08,05,03,02,4.60
2020,08,05,03,03,4.10
2020,08,05,03,04,3.10
2020,08,05,03,05,6.50
2020,08,05,03,06,4.70
2020,08,05,03,07,0.50
2020,08,05,03,08,4.70
2020,08,05,03,09,0.30
2020,08,05,03,10,2.40
2020,08,05,03,11,4.70
2020,08,05,03,12,5.10
2020,08,05,03,13,4.40
2020,08,05,03,14,6.10
2020,08,05,03,15,4.10
2020,08,05,03,16,4.30
2020,08,05,03,17,2.90
2020,08,05,03,18,1.00
2020,08,05,03,19,0.80
2020,08,05,03,20,4.00
2020,08,05,03,21,4.10
2020,08,05,03,22,4.50
2020,08,05,03,23,3.80
2020,08,05,03,24,5.10
2020,08,05,03,25,4.20
2020,08,05,03,26,5.20
2020,08,05,03,27,2.80
2020,08,05,03,28,3.40
2020,08,05,03,29,0.20
2020,08,05,03,30,0.00
2020,08,05,03,31,3.00
2020,08,05,03,32,0.10
2020,08,05,03,33,0.00
2020,08,05,03,34,0.60
2020,08,05,03,35,3.90
2020,08,05,03,36,2.40
2020,08,05,03,37,0.90
2020,08,05,03,38,0.00
2020,08,05,03,39,0.00
2020,08,05,03,40,3.00
2020,08,05,03,41,2.90
2020,08,05,03,42,3.70
2020,08,05,03,43,2.60
2020,08,05,03,44,3.20
2020,08,05,03,45,0.60
2020,08,05,03,46,0.00
2020,08,05,03,47,0.00
2020,08,05,03,48,0.00
2020,08,05,03,49,1.70
2020,08,05,03,50,5.10
2020,08,05,03,51,4.50
2020,08,05,03,52,3.40
2020,08,05,03,53,5.40
2020,08,05,03,54,2.60
2020,08,05,03,55,5.10
2020,08,05,03,56,4.80
2020,08,05,03,57,5.20
2020,08,05,03,58,0.20
2020,08,05,03,59,0.00
2020,08,05,04,00,0.00
2020,08,05,04,01,0.00
2020,08,05,04,02,0.00
2020,08,05,04,03,0.00
2020,08,05,04,04,0.00
2020,08,05,04,05,0.00
2020,08,05,04,06,0.00
2020,08,05,04,07,0.00
2020,08,05,04,08,0.00
2020,08,05,04,09,2.80
2020,08,05,04,10,1.90
2020,08,05,04,11,5.40
2020,08,05,04,12,3.10
2020,08,05,04,13,4.90
2020,08,05,04,14,3.10
2020,08,05,04,15,3.20
2020,08,05,04,16,4.70
2020,08,05,04,17,4.70
2020,08,05,04,18,3.90
2020,08,05,04,19,3.80
2020,08,05,04,20,2.40
2020,08,05,04,21,0.00
2020,08,05,04,22,0.00
2020,08,05,04,23,0.00
2020,08,05,04,24,0.00
2020,08,05,04,25,1.40
2020,08,05,04,26,4.40
2020,08,05,04,27,3.00
2020,08,05,04,28,3.80
2020,08,05,04,29,2.60
2020,08,05,04,30,1.00
2020,08,05,04,31,0.00
2020,08,05,04,32,2.10
2020,08,05,04,33,3.10
2020,08,05,04,34,2.90
2020,08,05,04,35,4.20
2020,08,05,04,36,2.40
2020,08,05,04,37,0.00
2020,08,05,04,38,2.80
2020,08,05,04,39,2.70
2020,08,05,04,40,2.20
2020,08,05,04,41,0.00
2020,08,05,04,42,0.00
2020,08,05,04,43,0.00
2020,08,05,04,44,0.00
2020,08,05,04,45,2.50
2020,08,05,04,46,2.60
2020,08,05,04,47,2.70
2020,08,05,04,48,2.50
2020,08,05,04,49,1.40
2020,08,05,04,50,2.70
2020,08,05,04,51,1.80
2020,08,05,04,52,0.20
2020,08,05,04,53,0.00
2020,08,05,04,54,0.00
2020,08,05,04,55,0.00
2020,08,05,04,56,0.00
2020,08,05,04,57,0.00
2020,08,05,04,58,0.00
2020,08,05,04,59,0.00
2020,08,05,05,00,0.00
2020,08,05,05,01,0.00
2020,08,05,05,02,0.00
2020,08,05,05,03,0.00
2020,08,05,05,04,0.00
2020,08,05,05,05,0.00
2020,08,05,05,06,0.00
2020,08,05,05,07,0.00
2020,08,05,05,08,0.00
2020,08,05,05,09,0.00
2020,08,05,05,10,0.00
2020,08,05,05,11,0.00
2020,08,05,05,12,0.00
2020,08,05,05,13,0.00
2020,08,05,05,14,0.00
2020,08,05,05,15,0.00
2020,08,05,05,16,0.00
2020,08,05,05,17,0.00
2020,08,05,05,18,0.10
2020,08,05,05,19,0.00
2020,08,05,05,20,0.00
2020,08,05,05,21,1.90
2020,08,05,05,22,0.00
2020,08,05,05,23,0.00
2020,08,05,05,24,3.90
2020,08,05,05,25,3.50
2020,08,05,05,26,4.50
2020,08,05,05,27,4.00
2020,08,05,05,28,5.60
2020,08,05,05,29,3.60
2020,08,05,05,30,4.40
2020,08,05,05,31,6.40
2020,08,05,05,32,5.00
2020,08,05,05,33,5.00
2020,08,05,05,34,4.20
2020,08,05,05,35,4.90
2020,08,05,05,36,3.90
2020,08,05,05,37,3.30
2020,08,05,05,38,4.00
2020,08,05,05,39,4.70
2020,08,05,05,40,2.20
2020,08,05,05,41,3.70
2020,08,05,05,42,5.10
2020,08,05,05,43,4.30
2020,08,05,05,44,3.00
2020,08,05,05,45,0.20
2020,08,05,05,46,2.50
2020,08,05,05,47,3.90
2020,08,05,05,48,1.20
2020,08,05,05,49,2.30
2020,08,05,05,50,3.50
2020,08,05,05,51,2.70
2020,08,05,05,52,1.90
2020,08,05,05,53,2.30
2020,08,05,05,54,3.90
2020,08,05,05,55,4.50
2020,08,05,05,56,6.00
2020,08,05,05,57,5.20
2020,08,05,05,58,5.10
2020,08,05,05,59,4.70
2020,08,05,06,00,5.10
2020,08,05,06,01,3.80
2020,08,05,06,02,4.30
2020,08,05,06,03,2.90
2020,08,05,06,04,3.40
2020,08,05,06,05,1.80
2020,08,05,06,06,3.90
2020,08,05,06,07,3.40
2020,08,05,06,08,1.70
2020,08,05,06,09,2.30
2020,08,05,06,10,2.50
2020,08,05,06,11,3.50
2020,08,05,06,12,3.10
2020,08,05,06,13,4.70
2020,08,05,06,14,3.80
2020,08,05,06,15,4.30
2020,08,05,06,16,3.80
2020,08,05,06,17,2.40
2020,08,05,06,18,3.90
2020,08,05,06,19,3.20
2020,08,05,06,20,3.80
2020,08,05,06,21,4.30
2020,08,05,06,22,4.10
2020,08,05,06,23,2.00
2020,08,05,06,24,1.90
2020,08,05,06,25,3.60
2020,08,05,06,26,1.90
2020,08,05,06,27,4.00
2020,08,05,06,28,0.70
2020,08,05,06,29,0.00
2020,08,05,06,30,0.00
2020,08,05,06,31,0.00
2020,08,05,06,32,0.00
2020,08,05,06,33,0.00
2020,08,05,06,34,0.00
2020,08,05,06,35,0.70
2020,08,05,06,36,2.50
2020,08,05,06,37,2.70
2020,08,05,06,38,2.50
2020,08,05,06,39,1.90
2020,08,05,06,40,2.40
2020,08,05,06,41,1.40
2020,08,05,06,42,1.50
2020,08,05,06,43,2.70
2020,08,05,06,44,2.50
2020,08,05,06,45,3.60
2020,08,05,06,46,3.00
2020,08,05,06,47,2.90
2020,08,05,06,48,4.70
2020,08,05,06,49,3.30
2020,08,05,06,50,4.60
2020,08,05,06,51,3.90
2020,08,05,06,52,3.80
2020,08,05,06,53,3.90
2020,08,05,06,54,3.40
2020,08,05,06,55,5.20
2020,08,05,06,56,3.60
2020,08,05,06,57,0.70
2020,08,05,06,58,1.10
2020,08,05,06,59,3.00
2020,08,05,07,00,5.40
2020,08,05,07,01,3.30
2020,08,05,07,02,3.40
2020,08,05,07,03,0.60
2020,08,05,07,04,0.00
2020,08,05,07,05,0.00
2020,08,05,07,06,0.00
2020,08,05,07,07,0.00
2020,08,05,07,08,1.30
2020,08,05,07,09,1.70
2020,08,05,07,10,0.90
2020,08,05,07,11,0.00
2020,08,05,07,12,0.00
2020,08,05,07,13,0.00
2020,08,05,07,14,1.00
2020,08,05,07,15,2.30
2020,08,05,07,16,3.50
2020,08,05,07,17,3.40
2020,08,05,07,18,3.30
2020,08,05,07,19,4.20
2020,08,05,07,20,3.40
2020,08,05,07,21,2.70
2020,08,05,07,22,2.20
2020,08,05,07,23,3.40
2020,08,05,07,24,3.00
2020,08,05,07,25,5.00
2020,08,05,07,26,3.10
2020,08,05,07,27,3.10
2020,08,05,07,28,1.80
2020,08,05,07,29,3.50
2020,08,05,07,30,3.10
2020,08,05,07,31,3.90
2020,08,05,07,32,4.40
2020,08,05,07,33,4.30
2020,08,05,07,34,6.40
2020,08,05,07,35,4.10
2020,08,05,07,36,4.50
2020,08,05,07,37,4.60
2020,08,05,07,38,3.80
2020,08,05,07,39,2.90
2020,08,05,07,40,4.50
2020,08,05,07,41,4.70
2020,08,05,07,42,3.10
2020,08,05,07,43,3.40
2020,08,05,07,44,4.20
2020,08,05,07,45,2.30
2020,08,05,07,46,1.30
2020,08,05,07,47,2.90
2020,08,05,07,48,1.60
2020,08,05,07,49,3.30
2020,08,05,07,50,2.80
2020,08,05,07,51,0.50
2020,08,05,07,52,1.80
2020,08,05,07,53,0.00
2020,08,05,07,54,1.70
2020,08,05,07,55,5.80
2020,08,05,07,56,5.40
2020,08,05,07,57,2.20
2020,08,05,07,58,4.80
2020,08,05,07,59,3.70
2020,08,05,08,00,3.60
2020,08,05,08,01,1.90
2020,08,05,08,02,4.30
2020,08,05,08,03,1.90
2020,08,05,08,04,1.30
2020,08,05,08,05,5.20
2020,08,05,08,06,4.30
2020,08,05,08,07,4.30
2020,08,05,08,08,2.30
2020,08,05,08,09,2.80
2020,08,05,08,10,4.40
2020,08,05,08,11,4.20
2020,08,05,08,12,2.30
2020,08,05,08,13,3.70
2020,08,05,08,14,4.60
2020,08,05,08,15,5.90
2020,08,05,08,16,8.60
2020,08,05,08,17,5.90
2020,08,05,08,18,2.20
2020,08,05,08,19,4.60
2020,08,05,08,20,2.70
2020,08,05,08,21,3.60
2020,08,05,08,22,4.00
2020,08,05,08,23,3.20
2020,08,05,08,24,2.90
2020,08,05,08,25,5.20
2020,08,05,08,26,2.70
2020,08,05,08,27,4.20
2020,08,05,08,28,4.70
2020,08,05,08,29,5.10
2020,08,05,08,30,3.80
2020,08,05,08,31,3.60
2020,08,05,08,32,4.40
2020,08,05,08,33,4.80
2020,08,05,08,34,6.50
2020,08,05,08,35,0.60
2020,08,05,08,36,3.20
2020,08,05,08,37,1.80
2020,08,05,08,38,5.20
2020,08,05,08,39,3.20
2020,08,05,08,40,2.10
2020,08,05,08,41,4.80
2020,08,05,08,42,4.20
2020,08,05,08,43,4.70
2020,08,05,08,44,3.70
2020,08,05,08,45,3.20
2020,08,05,08,46,6.20
2020,08,05,08,47,3.80
2020,08,05,08,48,6.10
2020,08,05,08,49,3.50
2020,08,05,08,50,3.30
2020,08,05,08,51,3.60
2020,08,05,08,52,1.90
2020,08,05,08,53,2.60
2020,08,05,08,54,4.60
2020,08,05,08,55,2.90
2020,08,05,08,56,2.70
2020,08,05,08,57,5.50
2020,08,05,08,58,4.80
2020,08,05,08,59,7.50
2020,08,05,09,00,5.80
2020,08,05,09,01,3.80
2020,08,05,09,02,6.40
2020,08,05,09,03,5.80
2020,08,05,09,04,8.30
2020,08,05,09,05,8.00
2020,08,05,09,06,5.60
2020,08,05,09,07,6.40
2020,08,05,09,08,3.10
2020,08,05,09,09,5.10
2020,08,05,09,10,3.60
2020,08,05,09,11,2.30
2020,08,05,09,12,9.00
2020,08,05,09,13,6.50
2020,08,05,09,14,4.40
2020,08,05,09,15,3.90
2020,08,05,09,16,5.00
2020,08,05,09,17,3.70
2020,08,05,09,18,8.10
2020,08,05,09,19,5.40
2020,08,05,09,20,5.30
2020,08,05,09,21,2.30
2020,08,05,09,22,6.20
2020,08,05,09,23,4.60
2020,08,05,09,24,5.60
2020,08,05,09,25,5.90
2020,08,05,09,26,5.90
2020,08,05,09,27,6.10
2020,08,05,09,28,5.50
2020,08,05,09,29,6.40
2020,08,05,09,30,2.00
2020,08,05,09,31,5.30
2020,08,05,09,32,6.40
2020,08,05,09,33,8.70
2020,08,05,09,34,6.90
2020,08,05,09,35,7.10
2020,08,05,09,36,7.20
2020,08,05,09,37,7.00
2020,08,05,09,38,7.80
2020,08,05,09,39,3.50
2020,08,05,09,40,2.30
2020,08,05,09,41,7.00
2020,08,05,09,42,8.80
2020,08,05,09,43,8.50
2020,08,05,09,44,8.80
2020,08,05,09,45,8.50
2020,08,05,09,46,8.50
2020,08,05,09,47,6.10
2020,08,05,09,48,6.50
2020,08,05,09,49,8.40
2020,08,05,09,50,8.50
2020,08,05,09,51,6.30
2020,08,05,09,52,6.60
2020,08,05,09,53,5.80
2020,08,05,09,54,3.10
2020,08,05,09,55,7.30
2020,08,05,09,56,4.60
2020,08,05,09,57,7.40
2020,08,05,09,58,4.30
2020,08,05,09,59,6.50
2020,08,05,10,00,8.30
2020,08,05,10,01,5.10
2020,08,05,10,02,7.10
2020,08,05,10,03,4.90
2020,08,05,10,04,6.00
2020,08,05,10,05,4.80
2020,08,05,10,06,2.70
2020,08,05,10,07,3.60
2020,08,05,10,08,0.00
2020,08,05,10,09,0.00
2020,08,05,10,10,3.50
2020,08,05,10,11,3.10
2020,08,05,10,12,5.50
2020,08,05,10,13,5.30
2020,08,05,10,14,0.10
2020,08,05,10,15,2.70
2020,08,05,10,16,5.30
2020,08,05,10,17,6.00
2020,08,05,10,18,1.60
2020,08,05,10,19,4.30
2020,08,05,10,20,4.70
2020,08,05,10,21,5.70
2020,08,05,10,22,5.70
2020,08,05,10,23,3.50
2020,08,05,10,24,5.10
2020,08,05,10,25,7.20
2020,08,05,10,26,6.50
2020,08,05,10,27,4.90
2020,08,05,10,28,6.70
2020,08,05,10,29,7.70
2020,08,05,10,30,8.20
2020,08,05,10,31,6.50
2020,08,05,10,32,4.30
2020,08,05,10,33,3.10
2020,08,05,10,34,8.90
2020,08,05,10,35,5.60
2020,08,05,10,36,7.80
2020,08,05,10,37,6.60
2020,08,05,10,38,7.60
2020,08,05,10,39,9.90
2020,08,05,10,40,5.90
2020,08,05,10,41,4.50
2020,08,05,10,42,8.80
2020,08,05,10,43,9.20
2020,08,05,10,44,6.40
2020,08,05,10,45,6.30
2020,08,05,10,46,6.80
2020,08,05,10,47,7.30
2020,08,05,10,48,6.80
2020,08,05,10,49,5.00
2020,08,05,10,50,8.00
2020,08,05,10,51,5.90
2020,08,05,10,52,7.60
2020,08,05,10,53,7.80
2020,08,05,10,54,4.60
2020,08,05,10,55,7.70
2020,08,05,10,56,9.10
2020,08,05,10,57,4.50
2020,08,05,10,58,6.70
2020,08,05,10,59,3.50
2020,08,05,11,00,3.80
2020,08,05,11,01,4.70
2020,08,05,11,02,4.80
2020,08,05,11,03,3.20
2020,08,05,11,04,1.00
2020,08,05,11,05,3.00
2020,08,05,11,06,6.40
2020,08,05,11,07,4.30
2020,08,05,11,08,3.50
2020,08,05,11,09,5.80
2020,08,05,11,10,4.40
2020,08,05,11,11,8.50
2020,08,05,11,12,3.20
2020,08,05,11,13,5.60
2020,08,05,11,14,5.40
2020,08,05,11,15,5.50
2020,08,05,11,16,3.40
2020,08,05,11,17,2.80
2020,08,05,11,18,2.10
2020,08,05,11,19,8.80
2020,08,05,11,20,3.40
2020,08,05,11,21,0.20
2020,08,05,11,22,0.60
2020,08,05,11,23,3.60
2020,08,05,11,24,6.60
2020,08,05,11,25,3.20
2020,08,05,11,26,2.80
2020,08,05,11,27,2.80
2020,08,05,11,28,2.40
2020,08,05,11,29,9.70
2020,08,05,11,30,7.40
2020,08,05,11,31,2.70
2020,08,05,11,32,5.80
2020,08,05,11,33,3.40
2020,08,05,11,34,4.70
2020,08,05,11,35,3.00
2020,08,05,11,36,3.30
2020,08,05,11,37,3.70
2020,08,05,11,38,3.90
2020,08,05,11,39,3.50
2020,08,05,11,40,5.30
2020,08,05,11,41,3.30
2020,08,05,11,42,1.60
2020,08,05,11,43,2.40
2020,08,05,11,44,3.40
2020,08,05,11,45,3.50
2020,08,05,11,46,3.30
2020,08,05,11,47,5.60
2020,08,05,11,48,6.30
2020,08,05,11,49,5.50
2020,08,05,11,50,2.40
2020,08,05,11,51,6.40
2020,08,05,11,52,7.40
2020,08,05,11,53,8.40
2020,08,05,11,54,5.20
2020,08,05,11,55,4.30
2020,08,05,11,56,3.70
2020,08,05,11,57,0.60
2020,08,05,11,58,2.30
2020,08,05,11,59,4.20
2020,08,05,12,00,3.80
2020,08,05,12,01,3.10
2020,08,05,12,02,6.40
2020,08,05,12,03,4.50
2020,08,05,12,04,4.80
2020,08,05,12,05,5.00
2020,08,05,12,06,6.90
2020,08,05,12,07,3.20
2020,08,05,12,08,7.10
2020,08,05,12,09,9.50
2020,08,05,12,10,4.70
2020,08,05,12,11,3.40
2020,08,05,12,12,3.20
2020,08,05,12,13,1.40
2020,08,05,12,14,5.90
2020,08,05,12,15,6.90
2020,08,05,12,16,6.20
2020,08,05,12,17,3.90
2020,08,05,12,18,1.90
2020,08,05,12,19,6.00
2020,08,05,12,20,1.80
2020,08,05,12,21,3.80
2020,08,05,12,22,6.20
2020,08,05,12,23,6.00
2020,08,05,12,24,7.20
2020,08,05,12,25,4.40
2020,08,05,12,26,2.70
2020,08,05,12,27,7.60
2020,08,05,12,28,3.90
2020,08,05,12,29,6.70
2020,08,05,12,30,3.90
2020,08,05,12,31,3.10
2020,08,05,12,32,7.00
2020,08,05,12,33,3.80
2020,08,05,12,34,7.60
2020,08,05,12,35,7.00
2020,08,05,12,36,6.40
2020,08,05,12,37,2.90
2020,08,05,12,38,5.00
2020,08,05,12,39,3.60
2020,08,05,12,40,5.40
2020,08,05,12,41,8.80
2020,08,05,12,42,2.90
2020,08,05,12,43,3.90
2020,08,05,12,44,2.10
2020,08,05,12,45,3.70
2020,08,05,12,46,4.50
2020,08,05,12,47,3.70
2020,08,05,12,48,5.00
2020,08,05,12,49,9.00
2020,08,05,12,50,6.10
2020,08,05,12,51,7.10
2020,08,05,12,52,8.70
2020,08,05,12,53,7.10
2020,08,05,12,54,5.20
2020,08,05,12,55,4.30
2020,08,05,12,56,1.80
2020,08,05,12,57,3.60
2020,08,05,12,58,5.50
2020,08,05,12,59,8.70
2020,08,05,13,00,8.50
2020,08,05,13,01,7.70
2020,08,05,13,02,5.80
2020,08,05,13,03,8.30
2020,08,05,13,04,4.60
2020,08,05,13,05,2.30
2020,08,05,13,06,8.70
2020,08,05,13,07,7.80
2020,08,05,13,08,6.00
2020,08,05,13,09,4.80
2020,08,05,13,10,2.40
2020,08,05,13,11,5.70
2020,08,05,13,12,9.60
2020,08,05,13,13,11.50
2020,08,05,13,14,6.90
2020,08,05,13,15,11.70
2020,08,05,13,16,9.10
2020,08,05,13,17,9.30
2020,08,05,13,18,8.00
2020,08,05,13,19,5.10
2020,08,05,13,20,12.70
2020,08,05,13,21,6.20
2020,08,05,13,22,5.50
2020,08,05,13,23,6.80
2020,08,05,13,24,8.10
2020,08,05,13,25,11.50
2020,08,05,13,26,8.10
2020,08,05,13,27,8.70
2020,08,05,13,28,9.40
2020,08,05,13,29,7.60
2020,08,05,13,30,10.50
2020,08,05,13,31,9.00
2020,08,05,13,32,7.90
2020,08,05,13,33,8.00
2020,08,05,13,34,8.60
2020,08,05,13,35,11.40
2020,08,05,13,36,8.90
2020,08,05,13,37,7.70
2020,08,05,13,38,10.50
2020,08,05,13,39,8.20
2020,08,05,13,40,8.40
2020,08,05,13,41,7.30
2020,08,05,13,42,6.50
2020,08,05,13,43,10.00
2020,08,05,13,44,4.70
2020,08,05,13,45,2.90
2020,08,05,13,46,4.50
2020,08,05,13,47,2.80
2020,08,05,13,48,3.30
2020,08,05,13,49,3.40
2020,08,05,13,50,5.20
2020,08,05,13,51,4.50
2020,08,05,13,52,4.20
2020,08,05,13,53,9.70
2020,08,05,13,54,3.90
2020,08,05,13,55,5.80
2020,08,05,13,56,12.60
2020,08,05,13,57,8.00
2020,08,05,13,58,8.40
2020,08,05,13,59,9.70
2020,08,05,14,00,8.10
2020,08,05,14,01,9.20
2020,08,05,14,02,10.20
2020,08,05,14,03,3.20
2020,08,05,14,04,4.20
2020,08,05,14,05,3.20
2020,08,05,14,06,3.90
2020,08,05,14,07,5.60
2020,08,05,14,08,5.10
2020,08,05,14,09,7.60
2020,08,05,14,10,8.30
2020,08,05,14,11,2.90
2020,08,05,14,12,4.00
2020,08,05,14,13,4.70
2020,08,05,14,14,7.00
2020,08,05,14,15,10.00
2020,08,05,14,16,7.70
2020,08,05,14,17,11.30
2020,08,05,14,18,8.00
2020,08,05,14,19,7.50
2020,08,05,14,20,6.00
2020,08,05,14,21,7.40
2020,08,05,14,22,4.00
2020,08,05,14,23,7.60
2020,08,05,14,24,5.90
2020,08,05,14,25,5.60
2020,08,05,14,26,3.10
2020,08,05,14,27,6.40
2020,08,05,14,28,6.10
2020,08,05,14,29,3.80
2020,08,05,14,30,3.50
2020,08,05,14,31,7.00
2020,08,05,14,32,7.60
2020,08,05,14,33,7.20
2020,08,05,14,34,5.40
2020,08,05,14,35,3.00
2020,08,05,14,36,7.70
2020,08,05,14,37,6.70
2020,08,05,14,38,7.80
2020,08,05,14,39,5.90
2020,08,05,14,40,5.20
2020,08,05,14,41,2.20
2020,08,05,14,42,8.60
2020,08,05,14,43,9.80
2020,08,05,14,44,4.60
2020,08,05,14,45,6.10
2020,08,05,14,46,8.60
2020,08,05,14,47,5.50
2020,08,05,14,48,5.50
2020,08,05,14,49,9.70
2020,08,05,14,50,7.80
2020,08,05,14,51,6.60
2020,08,05,14,52,5.10
2020,08,05,14,53,4.00
2020,08,05,14,54,6.90
2020,08,05,14,55,7.20
2020,08,05,14,56,10.40
2020,08,05,14,57,7.80
2020,08,05,14,58,6.00
2020,08,05,14,59,9.30
2020,08,05,15,00,9.80
2020,08,05,15,01,7.00
2020,08,05,15,02,6.10
2020,08,05,15,03,1.80
2020,08,05,15,04,1.90
2020,08,05,15,05,9.40
2020,08,05,15,06,7.40
2020,08,05,15,07,2.00
2020,08,05,15,08,4.50
2020,08,05,15,09,9.00
2020,08,05,15,10,7.60
2020,08,05,15,11,6.90
2020,08,05,15,12,5.50
2020,08,05,15,13,7.50
2020,08,05,15,14,7.70
2020,08,05,15,15,6.10
2020,08,05,15,16,3.40
2020,08,05,15,17,3.40
2020,08,05,15,18,4.70
2020,08,05,15,19,4.90
2020,08,05,15,20,7.60
2020,08,05,15,21,5.60
2020,08,05,15,22,5.70
2020,08,05,15,23,5.50
2020,08,05,15,24,7.40
2020,08,05,15,25,4.70
2020,08,05,15,26,3.00
2020,08,05,15,27,3.80
2020,08,05,15,28,14.30
2020,08,05,15,29,4.60
2020,08,05,15,30,4.90
2020,08,05,15,31,5.10
2020,08,05,15,32,4.80
2020,08,05,15,33,5.90
2020,08,05,15,34,11.60
2020,08,05,15,35,9.10
2020,08,05,15,36,5.70
2020,08,05,15,37,4.90
2020,08,05,15,38,3.50
2020,08,05,15,39,6.80
2020,08,05,15,40,5.60
2020,08,05,15,41,6.40
2020,08,05,15,42,8.20
2020,08,05,15,43,7.80
2020,08,05,15,44,11.80
2020,08,05,15,45,8.60
2020,08,05,15,46,5.50
2020,08,05,15,47,8.20
2020,08,05,15,48,6.80
2020,08,05,15,49,5.10
2020,08,05,15,50,3.90
2020,08,05,15,51,3.00
2020,08,05,15,52,5.40
2020,08,05,15,53,7.70
2020,08,05,15,54,5.60
2020,08,05,15,55,6.70
2020,08,05,15,56,7.10
2020,08,05,15,57,9.20
2020,08,05,15,58,5.50
2020,08,05,15,59,6.40
2020,08,05,16,00,4.70
2020,08,05,16,01,7.20
2020,08,05,16,02,5.10
2020,08,05,16,03,2.40
2020,08,05,16,04,5.40
2020,08,05,16,05,8.00
2020,08,05,16,06,4.10
2020,08,05,16,07,4.70
2020,08,05,16,08,6.30
2020,08,05,16,09,5.00
2020,08,05,16,10,9.80
2020,08,05,16,11,8.40
2020,08,05,16,12,7.40
2020,08,05,16,13,7.60
2020,08,05,16,14,8.00
2020,08,05,16,15,6.80
2020,08,05,16,16,7.40
2020,08,05,16,17,4.70
2020,08,05,16,18,7.00
2020,08,05,16,19,6.90
2020,08,05,16,20,10.50
2020,08,05,16,21,8.50
2020,08,05,16,22,8.00
2020,08,05,16,23,8.70
2020,08,05,16,24,4.60
2020,08,05,16,25,3.50
2020,08,05,16,26,6.60
2020,08,05,16,27,7.40
2020,08,05,16,28,7.50
2020,08,05,16,29,14.60
2020,08,05,16,30,7.40
2020,08,05,16,31,6.80
2020,08,05,16,32,6.00
2020,08,05,16,33,10.00
2020,08,05,16,34,6.40
2020,08,05,16,35,10.10
2020,08,05,16,36,7.90
2020,08,05,16,37,8.40
2020,08,05,16,38,10.30
2020,08,05,16,39,5.30
2020,08,05,16,40,5.30
2020,08,05,16,41,4.40
2020,08,05,16,42,3.10
2020,08,05,16,43,3.10
2020,08,05,16,44,4.30
2020,08,05,16,45,4.70
2020,08,05,16,46,5.80
2020,08,05,16,47,7.90
2020,08,05,16,48,4.50
2020,08,05,16,49,8.40
2020,08,05,16,50,10.90
2020,08,05,16,51,6.00
2020,08,05,16,52,7.60
2020,08,05,16,53,7.30
2020,08,05,16,54,6.70
2020,08,05,16,55,5.60
2020,08,05,16,56,7.20
2020,08,05,16,57,8.00
2020,08,05,16,58,9.30
2020,08,05,16,59,6.10
2020,08,05,17,00,5.90
2020,08,05,17,01,12.00
2020,08,05,17,02,7.20
2020,08,05,17,03,10.20
2020,08,05,17,04,8.20
2020,08,05,17,05,7.40
2020,08,05,17,06,10.50
2020,08,05,17,07,15.00
2020,08,05,17,08,10.30
2020,08,05,17,09,7.50
2020,08,05,17,10,7.60
2020,08,05,17,11,5.80
2020,08,05,17,12,7.20
2020,08,05,17,13,7.00
2020,08,05,17,14,7.60
2020,08,05,17,15,8.20
2020,08,05,17,16,7.80
2020,08,05,17,17,9.10
2020,08,05,17,18,8.40
2020,08,05,17,19,7.80
2020,08,05,17,20,7.70
2020,08,05,17,21,4.60
2020,08,05,17,22,8.00
2020,08,05,17,23,9.70
2020,08,05,17,24,9.60
2020,08,05,17,25,6.70
2020,08,05,17,26,7.70
2020,08,05,17,27,6.40
2020,08,05,17,28,9.60
2020,08,05,17,29,6.80
2020,08,05,17,30,5.70
2020,08,05,17,31,5.80
2020,08,05,17,32,6.10
2020,08,05,17,33,4.70
2020,08,05,17,34,9.60
2020,08,05,17,35,8.10
2020,08,05,17,36,5.60
2020,08,05,17,37,9.40
2020,08,05,17,38,5.20
2020,08,05,17,39,6.70
2020,08,05,17,40,11.90
2020,08,05,17,41,5.60
2020,08,05,17,42,4.70
2020,08,05,17,43,9.30
2020,08,05,17,44,6.40
2020,08,05,17,45,4.70
2020,08,05,17,46,6.00
2020,08,05,17,47,10.60
2020,08,05,17,48,8.00
2020,08,05,17,49,8.10
2020,08,05,17,50,11.30
2020,08,05,17,51,8.80
2020,08,05,17,52,9.60
2020,08,05,17,53,8.40
2020,08,05,17,54,10.00
2020,08,05,17,55,10.00
2020,08,05,17,56,6.00
2020,08,05,17,57,8.00
2020,08,05,17,58,11.20
2020,08,05,17,59,7.30
2020,08,05,18,00,11.00
2020,08,05,18,01,8.10
2020,08,05,18,02,6.50
2020,08,05,18,03,7.40
2020,08,05,18,04,5.70
2020,08,05,18,05,6.00